Montevideo, MN

4:43 PM CST on February 08, 2016 (GMT -0600)
Montevideo-Chippewa County

Weather History for KMVE - July, 2013

Change the Weather History Date:

Tuesday, July 16, 2013

  Actual Average Record
Temperature  
Mean Temperature 78 °F -  
Max Temperature 86 °F 87 °F 96 °F (2012)
Min Temperature 69 °F 60 °F 48 °F (1958)
Cooling Degree Days 12    
Growing Degree Days 28 (Base 50)    
Moisture  
Dew Point 69 °F    
Average Humidity 74    
Maximum Humidity 100    
Minimum Humidity 51    
Precipitation  
Precipitation 0.00 in - - ()
Sea Level Pressure  
Sea Level Pressure 30.18 in    
Wind  
Wind Speed 7 mph (SW)    
Max Wind Speed 15 mph    
Max Gust Speed 21 mph    
Visibility 10 miles    
Events      
Averages and records for this station are not official NWS values.
T = Trace of Precipitation, MM = Missing Value Source: NWS Daily Summary

Daily Weather History Graph

Daily Weather History Graph

Search for Another Location

Airport or City:

Trip Planner

Search our weather history database for the weather conditions in past years. The results will help you decide how hot, cold, wet, or windy it might be!

Date:

Astronomy

Jul. 16, 2013 Rise Set
Actual Time 5:51 AM CDT 9:05 PM CDT
Civil Twilight 5:16 AM CDT 9:41 PM CDT
Nautical Twilight 4:29 AM CDT 10:27 PM CDT
Astronomical Twilight 3:32 AM CDT 11:24 PM CDT
Moon 2:42 PM CDT (7/16) 12:30 AM CDT (7/16)
Length of Visible Light 16h 25m
Length of Day
15h 13m
First Quarter, 56% of the Moon is Illuminated
Jul 16
First Quarter
Jul 22
Full
Jul 29
Last Quarter
Aug 6
New
Aug 14
First Quarter

Hourly Weather History & Observations

Time (CDT) Temp. Heat Index Dew Point Humidity Pressure Visibility Wind Dir Wind Speed Gust Speed Precip Events Conditions
12:14 AM 75.2 °F - 69.8 °F 83% 30.15 in 10.0 mi SSW 4.6 mph - N/A   Clear
12:34 AM 75.2 °F - 69.8 °F 83% 30.15 in 10.0 mi South 5.8 mph - N/A   Clear
12:54 AM 73.4 °F - 69.8 °F 88% 30.15 in 10.0 mi South 5.8 mph - N/A   Scattered Clouds
1:14 AM 73.4 °F - 69.8 °F 88% 30.15 in 10.0 mi South 5.8 mph - N/A   Clear
1:34 AM 73.4 °F - 69.8 °F 88% 30.15 in 10.0 mi SSW 5.8 mph - N/A   Clear
1:54 AM 73.4 °F - 69.8 °F 88% 30.15 in 10.0 mi South 5.8 mph - N/A   Clear
2:14 AM 73.4 °F - 69.8 °F 88% 30.15 in 10.0 mi South 5.8 mph - N/A   Clear
2:34 AM 73.4 °F - 69.8 °F 88% 30.15 in 10.0 mi South 8.1 mph - N/A   Clear
2:53 AM 73.4 °F - 69.8 °F 88% 30.15 in 10.0 mi SSW 6.9 mph - N/A   Clear
3:14 AM 71.6 °F - 69.8 °F 94% 30.15 in 7.0 mi SSW 6.9 mph - N/A   Clear
3:34 AM 73.4 °F - 69.8 °F 88% 30.15 in 10.0 mi SSW 5.8 mph - N/A   Clear
3:54 AM 73.4 °F - 69.8 °F 88% 30.15 in 10.0 mi SSW 6.9 mph - N/A   Clear
4:14 AM 73.4 °F - 69.8 °F 88% 30.15 in 10.0 mi SSW 5.8 mph - N/A   Clear
4:33 AM 71.6 °F - 69.8 °F 94% 30.14 in 10.0 mi SSW 5.8 mph - N/A   Clear
4:54 AM 71.6 °F - 69.8 °F 94% 30.15 in 10.0 mi SSW 4.6 mph - N/A   Clear
5:14 AM 71.6 °F - 69.8 °F 94% 30.14 in 10.0 mi SSW 4.6 mph - N/A   Clear
5:33 AM 71.6 °F - 69.8 °F 94% 30.15 in 10.0 mi SSW 4.6 mph - N/A   Clear
5:54 AM 71.6 °F - 69.8 °F 94% 30.15 in 7.0 mi SSW 3.5 mph - N/A   Clear
6:14 AM 69.8 °F - 69.8 °F 100% 30.16 in 7.0 mi SSW 3.5 mph - N/A   Clear
6:33 AM 69.8 °F - 69.8 °F 100% 30.17 in 7.0 mi SSW 4.6 mph - N/A   Clear
6:53 AM 71.6 °F - 69.8 °F 94% 30.18 in 7.0 mi SSW 4.6 mph - N/A   Clear
7:14 AM 71.6 °F - 69.8 °F 94% 30.18 in 10.0 mi SSW 5.8 mph - N/A   Clear
7:34 AM 73.4 °F - 69.8 °F 88% 30.18 in 10.0 mi SW 5.8 mph - N/A   Clear
7:54 AM 73.4 °F - 69.8 °F 88% 30.18 in 10.0 mi SW 5.8 mph - N/A   Clear
8:14 AM 75.2 °F - 69.8 °F 83% 30.18 in 10.0 mi SW 6.9 mph - N/A   Clear
8:34 AM 75.2 °F - 69.8 °F 83% 30.19 in 10.0 mi SW 8.1 mph - N/A   Clear
8:54 AM 77.0 °F - 71.6 °F 83% 30.19 in 10.0 mi WSW 8.1 mph - N/A   Clear
9:14 AM 78.8 °F - 69.8 °F 74% 30.19 in 10.0 mi WSW 6.9 mph - N/A   Clear
9:34 AM 78.8 °F - 71.6 °F 78% 30.19 in 10.0 mi WSW 5.8 mph - N/A   Clear
9:54 AM 78.8 °F - 71.6 °F 78% 30.19 in 10.0 mi SW 8.1 mph - N/A   Clear
10:14 AM 80.6 °F 84.6 °F 71.6 °F 74% 30.19 in 10.0 mi SW 8.1 mph - N/A   Clear
10:34 AM 80.6 °F 84.6 °F 71.6 °F 74% 30.19 in 10.0 mi WSW 8.1 mph - N/A   Clear
10:54 AM 80.6 °F 84.6 °F 71.6 °F 74% 30.20 in 10.0 mi WSW 9.2 mph - N/A   Clear
11:14 AM 82.4 °F 87.2 °F 71.6 °F 70% 30.20 in 10.0 mi West 11.5 mph - N/A   Clear
11:34 AM 82.4 °F 87.2 °F 71.6 °F 70% 30.20 in 10.0 mi WSW 13.8 mph - N/A   Clear
11:54 AM 82.4 °F 87.2 °F 71.6 °F 70% 30.20 in 10.0 mi WSW 12.7 mph 18.4 mph N/A   Clear
12:14 PM 84.2 °F 88.4 °F 69.8 °F 62% 30.20 in 10.0 mi WSW 10.4 mph 18.4 mph N/A   Clear
12:34 PM 84.2 °F 88.4 °F 69.8 °F 62% 30.20 in 10.0 mi West 9.2 mph - N/A   Clear
12:54 PM 84.2 °F 86.6 °F 66.2 °F 55% 30.20 in 10.0 mi West 11.5 mph 16.1 mph N/A   Clear
1:14 PM 84.2 °F 86.6 °F 66.2 °F 55% 30.20 in 10.0 mi West 9.2 mph 17.3 mph N/A   Clear
1:34 PM 84.2 °F 87.3 °F 68.0 °F 58% 30.20 in 10.0 mi WSW 13.8 mph 17.3 mph N/A   Clear
1:54 PM 84.2 °F 86.6 °F 66.2 °F 55% 30.20 in 10.0 mi WSW 12.7 mph 17.3 mph N/A   Clear
2:14 PM 86.0 °F 89.4 °F 68.0 °F 55% 30.19 in 10.0 mi WSW 11.5 mph 17.3 mph N/A   Clear
2:34 PM 84.2 °F 87.3 °F 68.0 °F 58% 30.19 in 10.0 mi WSW 15.0 mph 18.4 mph N/A   Clear
2:53 PM 86.0 °F 89.4 °F 68.0 °F 55% 30.18 in 10.0 mi WSW 11.5 mph 18.4 mph N/A   Clear
3:14 PM 86.0 °F 90.4 °F 69.8 °F 58% 30.19 in 10.0 mi WSW 12.7 mph 16.1 mph N/A   Clear
3:34 PM 86.0 °F 88.2 °F 66.2 °F 51% 30.19 in 10.0 mi WSW 11.5 mph 17.3 mph N/A   Clear
3:53 PM 86.0 °F 89.4 °F 68.0 °F 55% 30.19 in 10.0 mi WSW 10.4 mph 16.1 mph N/A   Clear
4:14 PM 86.0 °F 88.2 °F 66.2 °F 51% 30.18 in 10.0 mi WSW 12.7 mph 20.7 mph N/A   Clear
4:34 PM 86.0 °F 89.4 °F 68.0 °F 55% 30.18 in 10.0 mi WSW 8.1 mph - N/A   Clear
4:54 PM 86.0 °F 89.4 °F 68.0 °F 55% 30.18 in 10.0 mi WSW 10.4 mph 16.1 mph N/A   Clear
5:14 PM 84.2 °F 87.3 °F 68.0 °F 58% 30.18 in 10.0 mi WSW 11.5 mph - N/A   Clear
5:34 PM 84.2 °F 87.3 °F 68.0 °F 58% 30.18 in 10.0 mi WSW 11.5 mph - N/A   Clear
5:54 PM 84.2 °F 87.3 °F 68.0 °F 58% 30.18 in 10.0 mi WSW 12.7 mph - N/A   Clear
6:14 PM 84.2 °F 88.4 °F 69.8 °F 62% 30.18 in 10.0 mi WSW 6.9 mph - N/A   Clear
6:34 PM 84.2 °F 87.3 °F 68.0 °F 58% 30.18 in 10.0 mi WSW 9.2 mph - N/A   Clear
6:54 PM 84.2 °F 88.4 °F 69.8 °F 62% 30.18 in 10.0 mi WSW 8.1 mph - N/A   Clear
7:14 PM 84.2 °F 87.3 °F 68.0 °F 58% 30.18 in 10.0 mi WSW 9.2 mph - N/A   Clear
7:34 PM 82.4 °F 86.3 °F 69.8 °F 66% 30.18 in 10.0 mi WSW 6.9 mph - N/A   Clear
7:54 PM 82.4 °F 86.3 °F 69.8 °F 66% 30.18 in 10.0 mi SW 6.9 mph - N/A   Clear
8:14 PM 82.4 °F 86.3 °F 69.8 °F 66% 30.18 in 10.0 mi SW 6.9 mph - N/A   Clear
8:34 PM 80.6 °F 83.9 °F 69.8 °F 70% 30.18 in 10.0 mi SW 10.4 mph - N/A   Clear
8:54 PM 80.6 °F 83.2 °F 68.0 °F 65% 30.18 in 10.0 mi SW 8.1 mph - N/A   Clear
9:14 PM 78.8 °F - 66.2 °F 65% 30.18 in 10.0 mi SW 5.8 mph - N/A   Clear
9:34 PM 78.8 °F - 66.2 °F 65% 30.20 in 10.0 mi WSW 5.8 mph - N/A   Clear
9:54 PM 77.0 °F - 66.2 °F 69% 30.21 in 10.0 mi SW 5.8 mph - N/A   Clear
10:14 PM 77.0 °F - 66.2 °F 69% 30.21 in 10.0 mi SW 6.9 mph - N/A   Clear
10:34 PM 77.0 °F - 68.0 °F 74% 30.22 in 10.0 mi SSW 3.5 mph - N/A   Clear
10:54 PM 75.2 °F - 68.0 °F 78% 30.22 in 10.0 mi SW 4.6 mph - N/A   Clear
11:14 PM 75.2 °F - 68.0 °F 78% 30.22 in 10.0 mi SSW 3.5 mph - N/A   Clear
11:34 PM 75.2 °F - 68.0 °F 78% 30.22 in 10.0 mi SW 4.6 mph - N/A   Clear
11:54 PM 75.2 °F - 68.0 °F 78% 30.22 in 10.0 mi SW 5.8 mph - N/A   Clear